{"data":{"norad_id":61244,"intl_designator":"2024-175B","name":"STARLINK-11276 [DTC]","alt_names":[],"object_type":"PAYLOAD","status":"ACTIVE","operator":null,"country":"US","launch_date":"2024-09-25","launch_site_code":"AFWTR","launch_vehicle":null,"mission":null,"orbit_class":"UNKNOWN","rcs_meters":null,"size_class":null,"mass_kg":null,"dimensions":null,"purposes":["comms"],"wikipedia_slug":null,"has_3d_model":false,"image_url":null,"decayed_at":null,"tle_current":{"epoch":"2026-05-25T03:15:22.637088Z","epoch_age_seconds":63042,"freshness":"FRESH","line1":"1 61244U 24175B   26145.13567867  .00002780  00000+0  27808-4 0  9992","line2":"2 61244  53.1590  39.3806 0000966  89.7139 270.3990 15.69697708 95371","mean_motion":15.69697708,"eccentricity":9.66e-5,"inclination_deg":53.159,"raan_deg":39.3806,"arg_perigee_deg":89.7139,"mean_anomaly_deg":270.399,"bstar":2.7808e-5,"rev_number":9537,"period_min":91.737408588992,"perigee_km":359.11104461198,"apogee_km":360.41280668441,"semimajor_km":6737.8989256482,"source":"CELESTRAK","updated_at":"2026-05-25T13:38:19.363925Z"}}}